Location: Invercargill
(46.4000°S, 168.3500°E)
Time: 10:57:16
(UTC+12:00)

Cosmos 1842 Rocket - Pass Details

Date: 14 May 2021
Orbit: 604 x 635 km, 82.5° (Epoch: 15 June)

Event Time Altitude Azimuth Distance (km) Brightness Sun altitude
Rises 18:06:20 0° 183° (S) 2,935 6.9 -7.4°
Reaches altitude 10° 18:08:43 10° 174° (S) 2,025 6.0 -7.7°
Maximum altitude 18:12:54 37° 105° (ESE) 985 4.1 -8.4°
Drops below altitude 10° 18:17:04 10° 37° (NE) 2,016 6.0 -9.1°
Sets 18:19:26 0° 28° (NNE) 2,920 6.9 -9.5°
